1514361600.04,38863,8.75,72070.8,-5.09,-33.89,-35.13,0,*5F
1514361601.26,38864,8.75,72068.5,-5.09,-34.13,-35.29,0,*55
1514361602.54,38865,8.75,72062.0,-5.11,-34.19,-35.35,0,*5A
1514361603.74,38866,8.75,72036.3,-5.09,-34.89,-36.07,0,*5B
1514361604.96,38867,8.75,72016.5,-5.09,-34.77,-35.89,0,*5E
1514361606.25,38868,8.75,72030.8,-5.11,-34.53,-35.65,0,*5C
1514361607.51,38869,8.75,72040.3,-5.09,-34.19,-35.41,0,*5C
1514361608.72,38870,8.75,72052.5,-5.09,-34.13,-35.13,0,*59
1514361609.96,38871,8.75,72066.5,-5.09,-34.35,-35.47,0,*5D
1514361611.24,38872,8.75,72072.8,-5.07,-34.31,-35.53,0,*51
1514361612.47,38873,8.75,72086.8,-5.07,-33.95,-35.17,0,*59
1514361613.73,38874,8.75,72074.5,-5.07,-34.13,-35.35,0,*57
1514361615.01,38875,8.75,72080.3,-5.07,-34.31,-35.41,0,*55
1514361616.29,38876,8.75,72026.5,-5.07,-34.31,-35.35,0,*55
1514361617.58,38877,8.75,72040.0,-5.07,-34.83,-35.83,0,*50
1514361618.86,38878,8.75,72042.5,-5.07,-35.23,-36.49,0,*51
1514361620.09,38879,8.75,72040.5,-5.07,-35.17,-36.19,0,*52
1514361621.34,38880,8.81,72048.3,-5.07,-35.23,-36.19,0,*53
1514361622.61,38881,8.75,72042.3,-5.07,-35.01,-35.95,0,*55
1514361623.88,38882,8.75,72056.5,-5.07,-35.07,-36.01,0,*5E
1514361625.12,38883,8.75,72060.0,-5.09,-35.29,-36.25,0,*5B
1514361626.33,38884,8.81,72060.0,-5.09,-35.29,-36.43,0,*5C
1514361627.53,38885,8.75,72068.3,-5.09,-35.77,-36.85,0,*5C
1514361628.8,38886,8.75,72076.5,-5.11,-35.53,-36.61,0,*5A
1514361630.03,38887,8.75,72114.3,-5.09,-35.65,-36.73,0,*54
1514361631.26,38888,8.75,72090.0,-5.11,-35.13,-36.07,0,*50
1514361632.49,38889,8.75,72088.3,-5.11,-34.77,-35.71,0,*50
1514361633.72,38890,8.75,72100.8,-5.11,-35.13,-36.07,0,*59
1514361634.95,38891,8.75,72114.0,-5.11,-35.13,-36.07,0,*58
1514361636.24,38892,8.75,72100.0,-5.11,-34.95,-35.95,0,*5C
1514361637.49,38893,8.75,72076.8,-5.11,-35.35,-36.43,0,*5E
1514361638.75,38894,8.81,72090.3,-5.11,-35.29,-36.25,0,*54
1514361639.96,38895,8.75,72066.3,-5.13,-35.13,-36.07,0,*5E
1514361641.21,38896,8.75,72030.3,-5.11,-35.35,-36.31,0,*5E
1514361642.46,38897,8.75,72024.8,-5.11,-35.17,-36.13,0,*5F
1514361643.72,38898,8.75,72026.3,-5.11,-35.29,-36.13,0,*5D
1514361644.97,38899,8.75,72010.8,-5.11,-35.17,-36.13,0,*51
1514361646.2,38900,8.75,72054.5,-5.11,-35.13,-36.07,0,*51
1514361647.44,38901,8.75,72058.8,-5.11,-34.77,-35.77,0,*57
1514361648.7,38902,8.75,72020.5,-5.11,-35.17,-36.13,0,*52
1514361649.96,38903,8.81,72038.0,-5.11,-34.83,-35.89,0,*5F
1514361651.22,38904,8.75,72062.5,-5.11,-35.13,-36.13,0,*50
1514361652.47,38905,8.75,72052.0,-5.11,-35.35,-36.43,0,*50
1514361653.7,38906,8.81,72058.5,-5.09,-35.59,-36.61,0,*50
1514361654.93,38907,8.81,72054.8,-5.13,-35.65,-36.67,0,*53
1514361656.14,38908,8.81,72028.3,-5.17,-36.01,-37.15,0,*5D
1514361657.37,38909,8.81,72054.3,-5.17,-35.95,-37.03,0,*55
1514361658.58,38910,8.81,72058.0,-5.17,-36.01,-37.27,0,*55
1514361659.78,38911,8.81,72054.8,-5.17,-36.19,-37.27,0,*5D
1514361661.04,38912,8.75,72062.0,-5.19,-36.55,-37.69,0,*52
1514361662.3,38913,8.81,72066.5,-5.19,-36.01,-37.09,0,*54
1514361663.51,38914,8.81,72084.5,-5.21,-35.89,-36.97,0,*5D
1514361664.77,38915,8.81,72082.8,-5.21,-35.83,-36.91,0,*50
1514361666.0,38916,8.81,72080.8,-5.19,-35.59,-36.73,0,*53
1514361667.26,38917,8.81,72094.0,-5.19,-35.83,-36.97,0,*5F
1514361668.46,38918,8.81,72090.5,-5.21,-35.59,-36.43,0,*55
1514361669.72,38919,8.75,72054.8,-5.21,-35.83,-36.91,0,*5C
1514361670.93,38920,8.81,72028.0,-5.21,-36.07,-36.97,0,*5F
1514361672.19,38921,8.75,72028.0,-5.21,-35.83,-36.91,0,*57
1514361673.42,38922,8.81,72038.5,-5.21,-35.65,-36.73,0,*50
1514361674.68,38923,8.81,72034.5,-5.21,-35.65,-36.61,0,*52
1514361675.88,38924,8.81,72060.5,-5.21,-35.13,-36.07,0,*54
1514361677.09,38925,8.75,72070.0,-5.21,-35.59,-36.43,0,*5B
1514361678.3,38926,8.81,72070.3,-5.21,-35.29,-36.19,0,*50
1514361679.55,38927,8.81,72066.3,-5.21,-35.23,-36.01,0,*52
1514361680.78,38928,8.81,72064.0,-5.21,-35.47,-36.37,0,*5A
1514361682.03,38929,8.81,72056.5,-5.21,-35.65,-36.61,0,*58
1514361683.27,38930,8.81,72058.3,-5.21,-35.65,-36.55,0,*57
1514361684.52,38931,8.81,72060.0,-5.21,-35.41,-36.37,0,*54
1514361685.75,38932,8.81,72058.3,-5.21,-35.65,-36.55,0,*55
1514361686.97,38933,8.81,72064.3,-5.21,-35.59,-36.55,0,*5B
1514361688.21,38934,8.81,72076.0,-5.25,-35.29,-36.25,0,*58
1514361689.42,38935,8.81,72076.0,-5.21,-35.13,-36.01,0,*52
1514361690.69,38936,8.81,72074.8,-5.19,-35.07,-36.01,0,*5F
1514361691.97,38937,8.81,72068.0,-5.19,-35.07,-35.89,0,*5D
1514361693.23,38938,8.81,72078.8,-5.19,-34.47,-35.41,0,*53
1514361694.5,38939,8.81,72074.3,-5.19,-34.53,-35.59,0,*5E
1514361695.76,38940,8.75,72066.8,-5.19,-34.53,-35.47,0,*5F
1514361697.01,38941,8.81,72068.0,-5.19,-34.77,-35.77,0,*5B
1514361698.25,38942,8.81,72066.8,-5.17,-35.07,-36.01,0,*52
1514361699.49,38943,8.81,72060.0,-5.17,-35.23,-36.01,0,*55
1514361700.72,38944,8.81,72070.3,-5.17,-35.41,-36.19,0,*5F
1514361701.96,38945,8.81,72078.0,-5.13,-35.17,-35.95,0,*5E
1514361703.2,38946,8.81,72088.8,-5.17,-34.47,-35.35,0,*57
1514361704.43,38947,8.81,72102.5,-5.13,-34.35,-35.01,0,*50
1514361705.68,38948,8.81,72084.5,-5.13,-34.65,-35.47,0,*58
1514361706.94,38949,8.81,72090.0,-5.13,-34.83,-35.65,0,*51
1514361708.14,38950,8.81,72088.3,-5.13,-35.29,-36.07,0,*5F
1514361709.35,38951,8.81,72068.5,-5.13,-35.17,-36.07,0,*53
1514361710.55,38952,8.81,72052.5,-5.13,-35.17,-36.07,0,*50
1514361711.77,38953,8.81,72034.5,-5.17,-35.41,-36.19,0,*59
1514361713.0,38954,8.81,72036.5,-5.17,-35.41,-36.31,0,*54
1514361714.23,38955,8.81,72004.5,-5.13,-35.35,-36.07,0,*57
1514361715.44,38956,8.81,71990.3,-5.13,-35.29,-36.07,0,*59
1514361716.71,38957,8.81,71990.8,-5.17,-34.95,-35.95,0,*52
1514361717.91,38958,8.81,72044.3,-5.13,-35.17,-36.07,0,*5A
1514361719.12,38959,8.81,72028.0,-5.13,-35.47,-36.43,0,*5E
1514361720.36,38960,8.81,71998.8,-5.17,-35.53,-36.37,0,*56
1514361721.59,38961,8.81,71992.0,-5.17,-35.41,-36.19,0,*58
1514361722.84,38962,8.81,72016.3,-5.17,-35.23,-36.13,0,*55
1514361724.07,38963,8.81,72030.5,-5.17,-35.41,-36.19,0,*5A
1514361725.32,38964,8.81,72004.8,-5.13,-35.35,-36.13,0,*50
1514361726.58,38965,8.81,72002.8,-5.13,-35.35,-36.25,0,*54
1514361727.79,38966,8.81,72020.3,-5.17,-35.77,-36.73,0,*56
1514361729.02,38967,8.81,72016.5,-5.17,-35.41,-36.19,0,*5E
1514361730.27,38968,8.81,72010.0,-5.13,-35.35,-36.13,0,*5C
1514361731.5,38969,8.81,71982.3,-5.17,-35.41,-36.31,0,*5A
1514361732.71,38970,8.81,71998.5,-5.17,-35.77,-36.73,0,*51
1514361733.93,38971,8.81,72014.5,-5.17,-35.53,-36.31,0,*50
1514361735.16,38972,8.81,72028.5,-5.13,-35.53,-36.43,0,*52
1514361736.39,38973,8.81,72060.0,-5.13,-35.29,-36.13,0,*5B
1514361737.62,38974,8.81,72042.8,-5.17,-35.53,-36.31,0,*55
1514361738.86,38975,8.81,72032.5,-5.13,-34.77,-35.65,0,*55
1514361740.07,38976,8.81,72032.0,-5.13,-34.59,-35.29,0,*52
1514361741.34,38977,8.81,72028.5,-5.13,-34.53,-35.35,0,*54
1514361742.54,38978,8.81,72026.3,-5.13,-34.25,-35.17,0,*5A
1514361743.8,38979,8.81,72022.5,-5.13,-34.01,-34.83,0,*51
1514361745.06,38980,8.81,72016.0,-5.13,-34.01,-34.83,0,*57
1514361746.29,38981,8.81,72006.3,-5.09,-34.13,-34.95,0,*59
1514361747.55,38982,8.81,72020.3,-5.09,-34.19,-35.07,0,*5A
1514361748.76,38983,8.81,72010.5,-5.09,-34.13,-34.77,0,*57
1514361750.0,38984,8.81,72014.5,-5.07,-34.13,-35.01,0,*5E
1514361751.23,38985,8.81,72022.8,-5.07,-34.07,-34.89,0,*5B
1514361752.46,38986,8.81,72010.3,-5.07,-33.95,-34.89,0,*54
1514361753.72,38987,8.81,72018.8,-5.07,-34.07,-35.07,0,*5E
1514361754.96,38988,8.81,72018.8,-5.07,-34.07,-35.01,0,*57
1514361756.17,38989,8.81,71980.0,-5.05,-33.95,-35.01,0,*58
1514361757.39,38990,8.81,71970.8,-5.05,-34.07,-35.01,0,*5C
1514361758.66,38991,8.81,71976.3,-5.05,-34.53,-35.35,0,*5B
1514361759.89,38992,8.81,71984.3,-5.05,-34.31,-35.17,0,*5C
1514361761.18,38993,8.81,71990.5,-5.07,-34.53,-35.41,0,*58
1514361762.44,38994,8.81,71976.3,-5.03,-34.77,-35.53,0,*5E
1514361763.68,38995,8.81,71936.0,-5.03,-35.29,-36.01,0,*51
1514361764.9,38996,8.81,71998.8,-5.05,-35.53,-36.19,0,*50
1514361766.15,38997,8.81,71990.3,-5.05,-35.53,-36.13,0,*5B
1514361767.4,38998,8.81,72020.5,-5.05,-35.65,-36.37,0,*57
1514361768.63,38999,8.81,71980.0,-5.05,-35.65,-36.31,0,*50
1514361769.9,39000,8.81,72000.0,-5.07,-35.65,-36.37,0,*5C
1514361771.16,39001,8.81,72018.0,-5.07,-35.77,-36.49,0,*57
1514361772.44,39002,8.81,72004.8,-5.07,-35.83,-36.49,0,*5F
1514361773.7,39003,8.81,72020.5,-5.09,-36.25,-36.91,0,*5A
1514361774.92,39004,8.81,72000.3,-5.09,-36.07,-36.55,0,*55
1514361776.14,39005,8.81,72026.0,-5.09,-36.19,-36.79,0,*55
1514361777.38,39006,8.81,72022.0,-5.09,-35.59,-36.25,0,*58
1514361778.62,39007,8.81,72050.8,-5.09,-35.65,-36.37,0,*55
1514361779.83,39008,8.81,72032.5,-5.09,-35.89,-36.43,0,*5B
1514361781.09,39009,8.81,72068.8,-5.11,-35.89,-36.49,0,*59
1514361782.32,39010,8.81,72028.0,-5.11,-35.77,-36.43,0,*5A
1514361783.55,39011,8.81,72050.5,-5.11,-36.31,-36.85,0,*50
1514361784.8,39012,8.81,72050.3,-5.11,-36.25,-36.85,0,*56
1514361786.09,39013,8.81,72066.8,-5.11,-35.95,-36.61,0,*55
1514361787.32,39014,8.81,72068.5,-5.11,-35.71,-36.31,0,*5D
1514361788.55,39015,8.81,72066.8,-5.11,-35.71,-36.31,0,*5C
1514361789.79,39016,8.81,72028.8,-5.11,-35.53,-36.07,0,*5A
1514361791.03,39017,8.81,72032.5,-5.09,-35.71,-36.25,0,*52
1514361792.24,39018,8.81,72046.0,-5.13,-35.77,-36.43,0,*50
1514361793.46,39019,8.81,72058.3,-5.13,-35.47,-35.89,0,*57
1514361794.72,39020,8.81,72062.3,-5.11,-35.01,-35.53,0,*5A
1514361795.98,39021,8.81,72044.8,-5.11,-34.95,-35.47,0,*52
1514361797.23,39022,8.81,72040.3,-5.09,-35.83,-36.37,0,*5A
1514361798.49,39023,8.81,72084.5,-5.09,-35.65,-36.25,0,*50
1514361799.76,39024,8.81,72044.0,-5.11,-35.53,-36.13,0,*5E
1514361800.99,39025,8.81,72038.8,-5.11,-35.89,-36.43,0,*5D
1514361802.23,39026,8.88,72012.3,-5.11,-35.89,-36.67,0,*58
1514361803.49,39027,8.81,72004.5,-5.11,-35.77,-36.49,0,*54
1514361804.73,39028,8.81,72050.5,-5.11,-35.53,-36.07,0,*57
1514361805.99,39029,8.88,72046.5,-5.11,-35.89,-36.49,0,*5B
1514361807.19,39030,8.81,72024.8,-5.13,-35.71,-36.31,0,*59
1514361808.43,39031,8.88,72044.5,-5.11,-35.77,-36.43,0,*59
1514361809.64,39032,8.88,72058.8,-5.13,-35.71,-36.43,0,*5E
1514361810.84,39033,8.81,72052.8,-5.13,-35.47,-36.07,0,*5A
1514361812.08,39034,8.88,72050.3,-5.13,-35.35,-35.89,0,*5D
1514361813.29,39035,8.81,72054.5,-5.13,-34.59,-35.17,0,*50
1514361814.51,39036,8.88,72054.3,-5.13,-34.59,-35.29,0,*5E
1514361815.77,39037,8.88,72052.8,-5.11,-35.77,-36.49,0,*55
1514361816.98,39038,8.81,72042.3,-5.09,-36.19,-36.73,0,*51
1514361818.26,39039,8.81,72026.5,-5.11,-36.25,-36.79,0,*5C
1514361819.49,39040,8.81,72096.8,-5.13,-35.77,-36.49,0,*57
1514361820.7,39041,8.81,72016.5,-5.13,-35.47,-36.07,0,*5F
1514361821.95,39042,8.81,71968.0,-5.17,-35.83,-36.49,0,*5A
1514361823.17,39043,8.81,71998.3,-5.13,-35.77,-36.43,0,*5E
1514361824.37,39044,8.88,72010.3,-5.13,-36.31,-36.97,0,*51
1514361825.61,39045,8.88,71994.3,-5.17,-35.77,-36.37,0,*5F
1514361826.84,39046,8.88,72026.5,-5.13,-35.89,-36.61,0,*5A
1514361828.05,39047,8.88,72050.8,-5.17,-35.71,-36.31,0,*5D
1514361829.26,39048,8.81,72042.0,-5.13,-35.17,-35.77,0,*57
1514361830.54,39049,8.88,72042.8,-5.11,-34.95,-35.53,0,*59
1514361831.75,39050,8.88,72058.5,-5.09,-34.89,-35.47,0,*50
1514361833.01,39051,8.88,72078.3,-5.11,-34.83,-35.47,0,*52
1514361834.25,39052,8.88,72070.0,-5.11,-34.59,-35.17,0,*53
1514361835.45,39053,8.88,72062.0,-5.09,-35.13,-35.59,0,*5E
1514361836.74,39054,8.88,72060.3,-5.11,-34.83,-35.35,0,*52
1514361837.96,39055,8.88,72058.3,-5.09,-35.65,-36.07,0,*51
1514361839.19,39056,8.81,72038.3,-5.09,-35.71,-36.37,0,*54
1514361840.47,39057,8.88,72038.0,-5.11,-36.25,-36.61,0,*5D
1514361841.73,39058,8.88,72032.0,-5.11,-36.43,-37.09,0,*5D
1514361842.96,39059,8.88,72030.5,-5.13,-36.31,-37.09,0,*5B
1514361844.2,39060,8.88,71990.3,-5.13,-36.43,-37.09,0,*54
1514361845.4,39061,8.88,72010.8,-5.13,-36.67,-37.27,0,*5F
1514361846.63,39062,8.88,72008.3,-5.17,-36.49,-37.27,0,*54
1514361847.87,39063,8.88,71996.8,-5.17,-36.85,-37.51,0,*54
1514361849.08,39064,8.88,72014.8,-5.13,-36.97,-37.45,0,*51
1514361850.28,39065,8.88,72040.3,-5.17,-36.67,-37.33,0,*5A
1514361851.52,39066,8.88,72038.3,-5.19,-36.73,-37.33,0,*52
1514361852.75,39067,8.88,72040.5,-5.21,-36.61,-37.33,0,*5B
1514361853.99,39068,8.88,72026.5,-5.21,-36.73,-37.39,0,*5D
1514361855.2,39069,8.88,72040.3,-5.21,-36.73,-37.33,0,*56
1514361856.44,39070,8.88,72052.5,-5.19,-36.73,-37.33,0,*55
1514361857.67,39071,8.88,72034.3,-5.21,-36.61,-37.33,0,*5C
1514361858.93,39072,8.88,72030.5,-5.27,-36.79,-37.57,0,*52
1514361860.17,39073,8.88,72022.0,-5.25,-36.97,-37.81,0,*5A
1514361861.4,39074,8.88,72076.3,-5.27,-36.43,-37.27,0,*5A
1514361862.66,39075,8.88,72072.0,-5.25,-35.65,-36.25,0,*5D
1514361863.93,39076,8.88,72084.3,-5.27,-35.29,-35.83,0,*5B
1514361865.18,39077,8.88,72062.8,-5.25,-35.65,-36.25,0,*5F
1514361866.42,39078,8.88,72070.8,-5.25,-36.25,-36.97,0,*5E
1514361867.63,39079,8.88,72064.0,-5.25,-36.43,-37.03,0,*53
1514361868.87,39080,8.88,72078.3,-5.25,-36.25,-36.85,0,*5A
1514361870.13,39081,8.88,72060.0,-5.27,-36.25,-36.97,0,*5A
1514361871.38,39082,8.88,72054.8,-5.27,-36.49,-37.27,0,*59
1514361872.6,39083,8.88,72048.8,-5.25,-36.43,-37.15,0,*51
1514361873.83,39084,8.88,72046.3,-5.27,-36.31,-36.97,0,*5A
1514361875.1,39085,8.88,72056.0,-5.29,-36.49,-37.21,0,*56
1514361876.31,39086,8.88,72064.5,-5.29,-35.71,-36.19,0,*57
1514361877.57,39087,8.88,72072.5,-5.27,-35.17,-35.83,0,*58
1514361878.83,39088,8.88,72088.3,-5.27,-35.13,-35.83,0,*53
1514361880.09,39089,8.88,72076.3,-5.27,-35.13,-35.83,0,*52
1514361881.36,39090,8.88,72078.5,-5.27,-35.29,-35.95,0,*54
1514361882.59,39091,8.88,72086.8,-5.25,-35.35,-36.07,0,*52
1514361883.83,39092,8.88,72094.5,-5.25,-35.17,-35.83,0,*5E
1514361885.1,39093,8.88,72072.5,-5.21,-34.95,-35.65,0,*58
1514361886.34,39094,8.88,72076.8,-5.21,-34.53,-35.13,0,*54
1514361887.58,39095,8.88,72074.5,-5.21,-34.47,-35.23,0,*53
1514361888.81,39096,8.88,72070.3,-5.19,-34.89,-35.59,0,*54
1514361890.06,39097,8.88,72072.0,-5.19,-35.41,-36.19,0,*57
1514361891.29,39098,8.88,72108.5,-5.19,-35.47,-36.19,0,*5E
1514361892.5,39099,8.88,72116.3,-5.17,-34.89,-35.59,0,*55
1514361893.7,39100,8.88,72090.8,-5.17,-35.59,-36.31,0,*55
1514361894.95,39101,8.88,72070.0,-5.17,-35.95,-36.55,0,*56
1514361896.16,39102,8.88,72048.8,-5.17,-36.01,-36.67,0,*5A
1514361897.39,39103,8.88,72062.5,-5.19,-36.01,-36.73,0,*50
1514361898.63,39104,8.88,72072.3,-5.19,-35.89,-36.55,0,*50
1514361899.87,39105,8.88,72076.5,-5.21,-36.07,-36.79,0,*51
1514361901.13,39106,8.88,72074.5,-5.19,-36.25,-36.97,0,*59
1514361902.39,39107,8.88,72076.8,-5.19,-36.55,-37.39,0,*5A
1514361903.6,39108,8.88,72126.5,-5.21,-36.19,-36.97,0,*53
1514361904.86,39109,8.88,72128.3,-5.19,-35.59,-36.25,0,*57
1514361906.11,39110,8.88,72116.8,-5.19,-35.59,-36.37,0,*5C
1514361907.32,39111,8.88,72056.8,-5.21,-35.89,-36.73,0,*5B
1514361908.55,39112,8.88,72094.3,-5.19,-35.89,-36.43,0,*50
1514361909.82,39113,8.88,72032.5,-5.19,-35.47,-36.25,0,*53
1514361911.05,39114,8.88,72036.5,-5.19,-35.77,-36.43,0,*57
1514361912.29,39115,8.88,72060.0,-5.19,-35.89,-36.55,0,*50
1514361913.53,39116,8.88,72050.5,-5.19,-35.89,-36.73,0,*57
1514361914.76,39117,8.88,72040.0,-5.19,-35.89,-36.73,0,*56
1514361915.99,39118,8.88,72046.3,-5.17,-36.19,-36.91,0,*51
1514361917.25,39119,8.88,72016.8,-5.19,-36.25,-36.97,0,*57
1514361918.46,39120,8.88,72034.8,-5.21,-36.55,-37.33,0,*5E
1514361919.7,39121,8.94,72026.0,-5.21,-36.19,-37.09,0,*5E
1514361920.96,39122,8.88,71954.8,-5.21,-35.83,-36.61,0,*52
1514361922.21,39123,8.88,71950.3,-5.19,-36.01,-36.79,0,*58
1514361923.47,39124,8.88,71970.3,-5.19,-36.19,-37.21,0,*5A
1514361924.7,39125,8.88,71976.5,-5.19,-36.19,-36.97,0,*57
1514361925.94,39126,8.88,71968.5,-5.19,-36.01,-36.73,0,*57
1514361927.2,39127,8.88,71956.0,-5.21,-35.83,-36.61,0,*57
1514361928.46,39128,8.88,71964.0,-5.21,-36.37,-37.21,0,*51
1514361929.72,39129,8.88,71992.3,-5.21,-36.37,-37.21,0,*50
1514361930.94,39130,8.88,71998.0,-5.21,-35.89,-36.73,0,*58
1514361932.16,39131,8.88,71980.8,-5.21,-35.77,-36.55,0,*5C
1514361933.39,39132,8.88,71988.0,-5.21,-35.59,-36.25,0,*54
1514361934.68,39133,8.88,72016.0,-5.19,-36.37,-37.09,0,*5A
1514361935.91,39134,8.88,72048.8,-5.21,-36.37,-36.97,0,*50
1514361937.17,39135,8.94,72036.0,-5.21,-35.83,-36.61,0,*54
1514361938.41,39136,8.88,72052.8,-5.21,-36.37,-36.97,0,*52
1514361939.65,39137,8.88,72030.8,-5.21,-36.55,-37.21,0,*5B
1514361940.86,39138,8.88,72046.0,-5.21,-36.73,-37.57,0,*51
1514361942.1,39139,8.88,72044.8,-5.21,-36.61,-37.57,0,*53
1514361943.33,39140,8.94,72042.0,-5.21,-36.91,-37.57,0,*52
1514361944.55,39141,8.88,72032.0,-5.25,-36.97,-37.75,0,*51
1514361945.76,39142,8.88,72042.5,-5.25,-36.67,-37.45,0,*5E
1514361947.02,39143,8.94,72070.8,-5.25,-36.61,-37.39,0,*52
1514361948.27,39144,8.94,72082.0,-5.27,-35.89,-36.79,0,*57
1514361949.53,39145,8.94,72076.5,-5.27,-35.89,-36.61,0,*5F
1514361950.8,39146,8.88,72012.3,-5.27,-35.29,-35.83,0,*59
1514361952.05,39147,8.94,71968.0,-5.25,-35.53,-36.13,0,*5D
1514361953.27,39148,8.94,71998.0,-5.25,-35.53,-36.07,0,*57
1514361954.48,39149,8.94,71978.5,-5.25,-35.47,-36.07,0,*53
1514361955.72,39150,8.88,71944.0,-5.21,-36.25,-36.97,0,*51
1514361956.93,39151,8.88,72010.8,-5.21,-35.59,-36.19,0,*5E
1514361958.16,39152,8.88,71952.3,-5.21,-35.77,-36.37,0,*5D
1514361959.42,39153,8.88,71942.3,-5.21,-36.37,-37.09,0,*57
1514361960.66,39154,8.94,71966.3,-5.21,-35.83,-36.43,0,*53
1514361961.9,39155,8.94,71964.5,-5.21,-35.59,-36.25,0,*55
1514361963.13,39156,8.88,71968.3,-5.21,-35.83,-36.43,0,*51
1514361964.37,39157,8.94,71946.0,-5.21,-35.41,-36.01,0,*58
1514361965.62,39158,8.88,71926.0,-5.21,-35.23,-35.89,0,*50
1514361966.84,39159,8.94,71928.0,-5.21,-35.59,-36.37,0,*5A
1514361968.05,39160,8.94,71944.5,-5.21,-35.59,-36.19,0,*5C
1514361969.28,39161,8.94,71962.5,-5.19,-35.59,-36.07,0,*59
1514361970.54,39162,8.94,71990.0,-5.19,-35.83,-36.55,0,*5A
1514361971.76,39163,8.94,71954.3,-5.21,-36.01,-36.73,0,*5D
1514361973.02,39164,8.94,71980.5,-5.19,-35.83,-36.55,0,*5C
1514361974.25,39165,8.94,71984.5,-5.21,-35.65,-36.19,0,*56
1514361975.5,39166,8.94,71992.8,-5.19,-36.01,-36.79,0,*59
1514361976.76,39167,8.94,71980.5,-5.19,-36.07,-36.91,0,*58
1514361978.0,39168,8.94,71998.8,-5.21,-36.07,-36.79,0,*5A
1514361979.23,39169,8.94,72038.5,-5.19,-35.89,-36.73,0,*5F
1514361980.46,39170,8.94,72074.0,-5.19,-36.07,-36.97,0,*58
1514361981.73,39171,8.94,71990.3,-5.19,-35.83,-36.55,0,*58
1514361982.99,39172,8.94,71982.0,-5.19,-35.59,-36.25,0,*5B
1514361984.22,39173,8.94,72030.5,-5.19,-35.59,-36.43,0,*5A
1514361985.45,39174,8.94,72060.3,-5.19,-36.07,-36.97,0,*5C
1514361986.71,39175,8.94,71980.0,-5.19,-36.07,-36.91,0,*5B
1514361987.91,39176,8.94,71898.5,-5.17,-36.19,-36.85,0,*5C
1514361989.17,39177,8.94,71932.8,-5.19,-36.07,-36.79,0,*5F
1514361990.4,39178,8.94,71978.0,-5.17,-36.37,-37.33,0,*52
1514361991.63,39179,8.94,72028.0,-5.17,-36.49,-37.27,0,*5F
1514361992.88,39180,8.94,72024.3,-5.19,-36.61,-37.33,0,*58
1514361994.12,39181,8.94,71994.3,-5.17,-36.43,-37.21,0,*54
1514361995.41,39182,8.94,71988.0,-5.19,-36.61,-37.51,0,*5E
1514361996.66,39183,8.94,72002.0,-5.19,-36.01,-36.91,0,*54
1514361997.94,39184,8.94,72026.5,-5.19,-35.65,-36.25,0,*5D
1514361999.2,39185,8.94,72028.3,-5.19,-35.59,-36.25,0,*53
1514362000.47,39186,8.94,72030.3,-5.19,-35.83,-36.55,0,*50
1514362001.7,39187,8.94,72036.8,-5.19,-36.19,-36.97,0,*5F
1514362002.93,39188,8.94,72034.3,-5.19,-36.01,-36.73,0,*53
1514362004.2,39189,8.94,72042.3,-5.19,-36.55,-37.39,0,*5C
1514362005.46,39190,8.94,72048.5,-5.21,-36.37,-37.09,0,*58
1514362006.68,39191,8.94,72062.8,-5.21,-35.89,-36.55,0,*57
1514362007.94,39192,8.94,72074.5,-5.19,-35.23,-35.89,0,*5D
1514362009.23,39193,8.94,72022.3,-5.19,-35.23,-35.83,0,*56
1514362010.47,39194,8.94,72024.8,-5.17,-35.35,-36.01,0,*51
1514362011.7,39195,8.94,72032.0,-5.17,-35.41,-36.01,0,*53
1514362012.96,39196,8.94,72054.0,-5.13,-35.35,-35.95,0,*59
1514362014.18,39197,8.94,72028.5,-5.17,-35.01,-35.71,0,*51
1514362015.39,39198,8.94,72038.5,-5.13,-35.17,-35.77,0,*5B
1514362016.65,39199,8.94,72044.5,-5.13,-35.35,-35.95,0,*56
1514362017.87,39200,8.94,72024.0,-5.13,-35.01,-35.71,0,*58
1514362019.13,39201,8.94,72002.5,-5.13,-35.35,-35.95,0,*54
1514362020.36,39202,8.94,72004.0,-5.09,-35.41,-36.01,0,*51
1514362021.6,39203,8.94,71990.0,-5.09,-35.23,-35.89,0,*57
1514362022.84,39204,8.94,71974.5,-5.09,-35.13,-35.83,0,*59
1514362024.1,39205,8.94,71984.0,-5.11,-35.47,-36.25,0,*5F
1514362025.32,39206,8.94,71992.0,-5.09,-35.71,-36.37,0,*53
1514362026.58,39207,8.94,72042.8,-5.11,-36.25,-36.97,0,*53
1514362027.82,39208,8.94,72004.8,-5.09,-35.83,-36.55,0,*54
1514362029.07,39209,8.94,72000.0,-5.11,-36.07,-36.79,0,*5D
1514362030.31,39210,8.94,71992.3,-5.09,-36.37,-37.15,0,*54
1514362031.54,39211,8.94,71986.8,-5.11,-36.43,-37.27,0,*5E
1514362032.82,39212,8.94,72046.5,-5.11,-36.49,-37.21,0,*51
1514362034.08,39213,8.94,72058.5,-5.11,-36.43,-37.21,0,*5A
1514362035.31,39214,8.94,72016.0,-5.11,-36.01,-36.73,0,*5D
1514362036.57,39215,8.94,72014.0,-5.13,-35.95,-36.61,0,*53
1514362037.8,39216,8.94,72006.5,-5.13,-36.07,-36.79,0,*51
1514362039.03,39217,8.94,72058.8,-5.13,-36.43,-37.09,0,*56
1514362040.27,39218,8.94,72066.0,-5.13,-36.43,-37.09,0,*59
1514362041.51,39219,8.94,72104.5,-5.13,-35.95,-36.67,0,*59
1514362042.72,39220,8.94,72066.0,-5.13,-35.77,-36.67,0,*5F
1514362043.95,39221,8.94,72028.3,-5.13,-36.07,-36.79,0,*55
1514362045.21,39222,8.94,71980.8,-5.17,-35.83,-36.49,0,*5E
1514362046.45,39223,8.94,72006.8,-5.13,-36.31,-37.09,0,*54
1514362047.65,39224,8.94,72020.5,-5.13,-36.55,-37.27,0,*5D
1514362048.88,39225,8.94,72026.8,-5.13,-36.49,-37.27,0,*51
1514362050.12,39226,8.94,72026.0,-5.13,-36.97,-37.81,0,*5D
1514362051.36,39227,8.94,72078.3,-5.17,-36.67,-37.51,0,*5A
1514362052.56,39228,8.94,72050.8,-5.17,-36.19,-37.03,0,*5B
1514362053.8,39229,8.94,72026.5,-5.17,-35.83,-36.73,0,*5C
1514362055.02,39230,8.94,72028.8,-5.17,-35.77,-36.55,0,*5B
1514362056.25,39231,8.94,71990.3,-5.17,-36.49,-37.15,0,*51
1514362057.48,39232,8.94,72042.3,-5.19,-36.55,-37.33,0,*55
1514362058.74,39233,8.94,72036.3,-5.19,-36.91,-37.75,0,*5E
1514362060.0,39234,8.94,72056.3,-5.19,-36.79,-37.57,0,*5F
1514362061.28,39235,8.94,72070.8,-5.19,-36.37,-37.09,0,*5F
1514362062.51,39236,8.94,72084.3,-5.21,-36.19,-36.79,0,*5D
1514362063.75,39237,8.94,72070.3,-5.19,-35.77,-36.43,0,*55
1514362064.99,39238,8.94,72068.3,-5.19,-35.89,-36.73,0,*58
1514362066.24,39239,8.94,72078.5,-5.19,-35.65,-36.43,0,*58
1514362067.5,39240,8.94,72068.0,-5.19,-36.07,-36.79,0,*58
1514362068.73,39241,8.94,72044.5,-5.17,-36.13,-36.73,0,*58
1514362069.96,39242,8.94,72016.3,-5.19,-35.89,-36.73,0,*55
1514362071.2,39243,8.94,72064.8,-5.19,-36.07,-36.73,0,*51
1514362072.45,39244,8.94,72078.5,-5.19,-36.19,-36.91,0,*55
1514362073.74,39245,8.94,72004.0,-5.19,-36.37,-37.39,0,*5B
1514362075.0,39246,8.94,72018.8,-5.19,-36.55,-37.39,0,*5C
1514362076.26,39247,8.94,72034.0,-5.19,-36.79,-37.57,0,*5B
1514362077.5,39248,8.94,72000.5,-5.21,-36.55,-37.39,0,*59
1514362078.76,39249,8.94,72002.8,-5.19,-36.97,-37.93,0,*5D
1514362080.02,39250,8.94,72012.0,-5.19,-36.55,-37.39,0,*5B
1514362081.28,39251,8.94,71982.5,-5.21,-36.25,-37.09,0,*55
1514362082.52,39252,8.94,71958.8,-5.21,-36.61,-37.57,0,*5D
1514362083.76,39253,8.94,71950.8,-5.21,-36.19,-37.21,0,*52
1514362084.99,39254,8.94,71974.3,-5.21,-35.89,-36.61,0,*5A
1514362086.21,39255,8.94,71978.5,-5.21,-35.77,-36.55,0,*5D
1514362087.47,39256,8.94,71996.5,-5.19,-36.37,-36.97,0,*5C
1514362088.75,39257,8.94,71960.5,-5.19,-36.37,-37.09,0,*5B
1514362090.04,39258,8.94,72004.0,-5.19,-36.37,-37.09,0,*54
1514362091.27,39259,8.94,72024.0,-5.19,-36.19,-36.97,0,*5F
1514362092.48,39260,8.94,72070.5,-5.21,-36.55,-37.33,0,*59
1514362093.72,39261,8.94,72064.5,-5.21,-35.83,-36.55,0,*51
1514362094.95,39262,8.94,72078.3,-5.21,-35.59,-36.37,0,*51
1514362096.21,39263,8.94,72076.5,-5.19,-35.47,-36.25,0,*57
1514362097.47,39264,8.94,72054.0,-5.19,-35.47,-36.25,0,*50
1514362098.73,39265,8.94,72054.3,-5.19,-35.41,-36.01,0,*51
1514362099.97,39266,8.94,72054.8,-5.19,-35.29,-36.01,0,*5C
1514362101.18,39267,8.94,72042.8,-5.21,-35.47,-36.19,0,*57
1514362102.41,39268,8.94,72016.8,-5.19,-35.47,-36.19,0,*53
1514362103.67,39269,8.94,72024.0,-5.19,-35.89,-36.79,0,*56